Terug naar catalogus

OPS 9443

DSCS 2-13

ActiefMilitairGEO
NORAD 11621·PAYLOAD·🇺🇸 United States

Gelanceerd Nov 21, 1979 vanaf Cape Canaveral Space Force Station

Loading…

TLE

VersSource: Space-Track

Epoch: Sep 14, 2026, 04:33 UTC

1 11621U 79098A   26257.18965075 -.00000089  00000-0  00000-0 0  9995
2 11621  10.0792 312.5060 0006286 139.7788 235.9037  0.95598269616256

Volg OPS 9443 in realtime met AllMySat

Download on the App Store